Time,TemperatureF,DewpointF,PressureIn,WindDirection,WindDirectionDegrees,WindSpeedMPH,WindSpeedGustMPH,Humidity,HourlyPrecipIn,Conditions,Clouds,dailyrainin,SolarRadiationWatts/m^2,SoftwareType,DateUTC
2013-11-28 00:00:00,45.1,42.6,29.90,SW,229,0.0,0.0,91,0.00,,,0.00,0001,Weather View 32 v70,2013-11-28 08:00:00,
2013-11-28 00:05:00,45.1,42.6,29.90,SSE,162,0.0,0.0,91,0.00,,,0.00,0001,Weather View 32 v70,2013-11-28 08:05:00,
2013-11-28 00:10:00,45.0,42.5,29.90,South,184,0.0,0.0,91,0.00,,,0.00,0001,Weather View 32 v70,2013-11-28 08:10:00,
2013-11-28 00:20:00,44.6,42.1,29.90,ESE,117,0.0,0.0,91,0.00,,,0.00,0001,Weather View 32 v70,2013-11-28 08:20:00,
2013-11-28 00:25:00,44.5,42.0,29.90,SW,229,0.0,0.0,91,0.00,,,0.00,0001,Weather View 32 v70,2013-11-28 08:25:00,
2013-11-28 00:30:00,44.4,42.2,29.90,East,94,0.0,0.0,92,0.00,,,0.00,0001,Weather View 32 v70,2013-11-28 08:30:00,
2013-11-28 00:35:00,44.2,42.0,29.90,NW,319,0.0,0.0,92,0.00,,,0.00,0001,Weather View 32 v70,2013-11-28 08:35:00,
2013-11-28 00:40:00,44.2,42.0,29.90,West,274,0.0,0.0,92,0.00,,,0.00,0001,Weather View 32 v70,2013-11-28 08:40:00,
2013-11-28 00:50:00,44.0,41.8,29.90,SE,139,0.0,0.0,92,0.00,,,0.00,0001,Weather View 32 v70,2013-11-28 08:50:00,
2013-11-28 00:55:00,43.8,41.6,29.90,South,184,0.0,0.0,92,0.00,,,0.00,0001,Weather View 32 v70,2013-11-28 08:55:00,
2013-11-28 01:00:00,43.7,41.5,29.90,South,184,0.0,0.0,92,0.00,,,0.00,0001,Weather View 32 v70,2013-11-28 09:00:00,
2013-11-28 01:10:00,43.6,41.7,29.90,South,184,0.0,0.0,93,0.00,,,0.00,0001,Weather View 32 v70,2013-11-28 09:10:00,
2013-11-28 01:15:00,43.5,41.6,29.90,South,184,0.0,0.0,93,0.00,,,0.00,0001,Weather View 32 v70,2013-11-28 09:15:00,
2013-11-28 01:20:00,43.6,41.7,29.90,South,184,0.0,0.0,93,0.00,,,0.00,0001,Weather View 32 v70,2013-11-28 09:20:00,
2013-11-28 01:25:00,43.5,41.9,29.90,SSW,207,0.0,0.0,94,0.00,,,0.00,0001,Weather View 32 v70,2013-11-28 09:25:00,
2013-11-28 01:30:00,43.4,41.5,29.90,SW,229,0.0,0.0,93,0.00,,,0.00,0002,Weather View 32 v70,2013-11-28 09:30:00,
2013-11-28 01:40:00,43.2,41.6,29.90,SSW,207,0.0,0.0,94,0.00,,,0.00,0002,Weather View 32 v70,2013-11-28 09:40:00,
2013-11-28 01:45:00,43.3,41.7,29.90,SW,229,0.0,0.0,94,0.00,,,0.00,0001,Weather View 32 v70,2013-11-28 09:45:00,
2013-11-28 01:55:00,43.0,41.4,29.91,SSW,207,0.0,0.0,94,0.00,,,0.00,0001,Weather View 32 v70,2013-11-28 09:55:00,
2013-11-28 02:00:00,43.0,41.4,29.91,SSW,207,0.0,0.0,94,0.00,,,0.00,0001,Weather View 32 v70,2013-11-28 10:00:00,
2013-11-28 02:10:00,42.9,41.3,29.91,WSW,252,0.0,0.0,94,0.00,,,0.00,0001,Weather View 32 v70,2013-11-28 10:10:00,
2013-11-28 02:15:00,42.9,41.3,29.91,WSW,252,0.0,0.0,94,0.00,,,0.00,0001,Weather View 32 v70,2013-11-28 10:15:00,
2013-11-28 02:20:00,42.9,41.6,29.91,WSW,252,0.0,0.0,95,0.00,,,0.00,0001,Weather View 32 v70,2013-11-28 10:20:00,
2013-11-28 02:25:00,42.8,41.5,29.91,WSW,252,0.0,0.0,95,0.00,,,0.00,0001,Weather View 32 v70,2013-11-28 10:25:00,
2013-11-28 02:35:00,42.4,41.1,29.91,WSW,252,0.0,0.0,95,0.00,,,0.00,0001,Weather View 32 v70,2013-11-28 10:35:00,
2013-11-28 02:40:00,42.3,41.0,29.91,WSW,252,0.0,0.0,95,0.00,,,0.00,0001,Weather View 32 v70,2013-11-28 10:40:00,
2013-11-28 02:45:00,42.3,41.0,29.91,WSW,252,0.0,0.0,95,0.00,,,0.00,0001,Weather View 32 v70,2013-11-28 10:45:00,
2013-11-28 02:50:00,42.3,41.0,29.91,WSW,252,0.0,0.0,95,0.00,,,0.00,0002,Weather View 32 v70,2013-11-28 10:50:00,
2013-11-28 03:00:00,42.2,40.9,29.91,East,94,0.0,0.0,95,0.00,,,0.00,0002,Weather View 32 v70,2013-11-28 11:00:00,
2013-11-28 03:05:00,41.8,40.5,29.91,South,184,0.0,0.0,95,0.00,,,0.00,0002,Weather View 32 v70,2013-11-28 11:05:00,
2013-11-28 03:10:00,41.7,40.4,29.91,South,184,0.0,0.0,95,0.00,,,0.00,0001,Weather View 32 v70,2013-11-28 11:10:00,
2013-11-28 03:15:00,41.8,40.7,29.91,SSE,162,0.0,0.0,96,0.00,,,0.00,0001,Weather View 32 v70,2013-11-28 11:15:00,
2013-11-28 03:20:00,41.9,40.8,29.91,SSE,162,0.0,0.0,96,0.00,,,0.00,0001,Weather View 32 v70,2013-11-28 11:20:00,
2013-11-28 03:30:00,41.5,40.4,29.91,ESE,117,0.0,0.0,96,0.00,,,0.00,0001,Weather View 32 v70,2013-11-28 11:30:00,
2013-11-28 03:35:00,41.4,40.3,29.92,ESE,117,0.0,0.0,96,0.00,,,0.00,0001,Weather View 32 v70,2013-11-28 11:35:00,
2013-11-28 03:40:00,41.3,40.2,29.92,SSE,162,0.0,0.0,96,0.00,,,0.00,0001,Weather View 32 v70,2013-11-28 11:40:00,
2013-11-28 03:45:00,41.3,40.2,29.92,SSE,162,0.0,0.0,96,0.00,,,0.00,0002,Weather View 32 v70,2013-11-28 11:45:00,
2013-11-28 03:55:00,41.5,40.4,29.92,SW,229,0.0,0.0,96,0.00,,,0.00,0002,Weather View 32 v70,2013-11-28 11:55:00,
2013-11-28 04:00:00,41.3,40.2,29.92,SSW,207,0.0,0.0,96,0.00,,,0.00,0001,Weather View 32 v70,2013-11-28 12:00:00,
2013-11-28 04:05:00,41.3,40.2,29.92,SSW,207,0.0,0.0,96,0.00,,,0.00,0001,Weather View 32 v70,2013-11-28 12:05:00,
2013-11-28 04:10:00,41.3,40.5,29.92,WNW,297,0.0,0.0,97,0.00,,,0.00,0001,Weather View 32 v70,2013-11-28 12:10:00,
2013-11-28 04:20:00,41.5,40.7,29.92,North,4,0.0,0.0,97,0.00,,,0.00,0001,Weather View 32 v70,2013-11-28 12:20:00,
2013-11-28 04:25:00,41.4,40.6,29.92,NNE,27,0.0,0.0,97,0.00,,,0.00,0001,Weather View 32 v70,2013-11-28 12:25:00,
2013-11-28 04:30:00,41.3,40.5,29.92,South,184,0.0,0.0,97,0.00,,,0.00,0001,Weather View 32 v70,2013-11-28 12:30:00,
2013-11-28 04:35:00,41.7,41.2,29.92,SSE,162,0.0,0.0,98,0.00,,,0.00,0001,Weather View 32 v70,2013-11-28 12:35:00,
2013-11-28 04:40:00,41.6,40.8,29.92,SE,139,0.0,0.0,97,0.00,,,0.00,0001,Weather View 32 v70,2013-11-28 12:40:00,
2013-11-28 04:47:00,41.6,40.8,29.92,South,184,0.0,0.0,97,0.00,,,0.00,0001,Weather View 32 v70,2013-11-28 12:47:00,
2013-11-28 04:55:00,41.2,40.4,29.92,SE,139,0.0,0.0,97,0.00,,,0.00,0001,Weather View 32 v70,2013-11-28 12:55:00,
2013-11-28 05:00:00,40.8,40.0,29.92,ESE,117,0.0,0.0,97,0.00,,,0.00,0001,Weather View 32 v70,2013-11-28 13:00:00,
2013-11-28 05:05:00,40.7,39.9,29.92,SE,139,0.0,0.0,97,0.00,,,0.00,0001,Weather View 32 v70,2013-11-28 13:05:00,
2013-11-28 05:15:00,40.5,40.0,29.92,SSW,207,0.0,0.0,98,0.00,,,0.00,0002,Weather View 32 v70,2013-11-28 13:15:00,
2013-11-28 05:20:00,40.7,40.2,29.92,WSW,252,0.0,0.0,98,0.00,,,0.00,0002,Weather View 32 v70,2013-11-28 13:20:00,
2013-11-28 05:25:00,40.6,40.1,29.92,SW,229,0.0,0.0,98,0.00,,,0.00,0001,Weather View 32 v70,2013-11-28 13:25:00,
2013-11-28 05:30:00,40.5,40.0,29.92,SW,229,0.0,0.0,98,0.00,,,0.00,0001,Weather View 32 v70,2013-11-28 13:30:00,
2013-11-28 05:40:00,40.5,40.0,29.93,SW,229,0.0,0.0,98,0.00,,,0.00,0001,Weather View 32 v70,2013-11-28 13:40:00,
2013-11-28 05:45:00,40.4,39.9,29.93,SW,229,0.0,0.0,98,0.00,,,0.00,0001,Weather View 32 v70,2013-11-28 13:45:00,
2013-11-28 05:50:00,40.6,40.1,29.93,SW,229,0.0,0.0,98,0.00,,,0.00,0001,Weather View 32 v70,2013-11-28 13:50:00,
2013-11-28 05:55:00,40.8,40.3,29.93,SW,229,0.0,0.0,98,0.00,,,0.00,0001,Weather View 32 v70,2013-11-28 13:55:00,
2013-11-28 06:05:00,40.8,40.3,29.93,SW,229,0.0,0.0,98,0.00,,,0.00,0002,Weather View 32 v70,2013-11-28 14:05:00,
2013-11-28 06:10:00,40.9,40.4,29.93,SW,229,0.0,0.0,98,0.00,,,0.00,0001,Weather View 32 v70,2013-11-28 14:10:00,
2013-11-28 06:15:00,40.9,40.4,29.94,SW,229,0.0,0.0,98,0.00,,,0.00,0001,Weather View 32 v70,2013-11-28 14:15:00,
2013-11-28 06:20:00,40.9,40.4,29.94,SW,229,0.0,0.0,98,0.00,,,0.00,0001,Weather View 32 v70,2013-11-28 14:20:00,
2013-11-28 06:30:00,41.1,40.6,29.94,SSW,207,0.0,0.0,98,0.00,,,0.00,0001,Weather View 32 v70,2013-11-28 14:30:00,
2013-11-28 06:35:00,41.2,40.9,29.94,ESE,117,0.0,0.0,99,0.00,,,0.00,0002,Weather View 32 v70,2013-11-28 14:35:00,
2013-11-28 06:40:00,41.2,40.7,29.94,SSW,207,0.0,0.0,98,0.00,,,0.00,0002,Weather View 32 v70,2013-11-28 14:40:00,
2013-11-28 06:45:00,41.2,40.7,29.95,South,184,0.0,0.0,98,0.00,,,0.00,0002,Weather View 32 v70,2013-11-28 14:45:00,
2013-11-28 06:50:00,41.3,41.0,29.95,SSE,162,0.0,0.0,99,0.00,,,0.00,0002,Weather View 32 v70,2013-11-28 14:50:00,
2013-11-28 07:00:00,41.3,41.0,29.95,South,184,0.0,0.0,99,0.00,,,0.00,0003,Weather View 32 v70,2013-11-28 15:00:00,
2013-11-28 07:05:00,41.5,41.2,29.95,South,184,0.0,0.0,99,0.00,,,0.00,0004,Weather View 32 v70,2013-11-28 15:05:00,
2013-11-28 07:10:00,41.6,41.3,29.95,South,184,0.0,0.0,99,0.00,,,0.00,0009,Weather View 32 v70,2013-11-28 15:10:00,
2013-11-28 07:15:00,41.7,41.4,29.95,SSE,162,0.0,0.0,99,0.00,,,0.00,0019,Weather View 32 v70,2013-11-28 15:15:00,
2013-11-28 07:20:00,41.7,41.4,29.95,SSE,162,0.0,0.0,99,0.00,,,0.00,0030,Weather View 32 v70,2013-11-28 15:20:00,
2013-11-28 07:30:00,41.8,41.5,29.95,SE,139,0.0,0.0,99,0.00,,,0.00,0049,Weather View 32 v70,2013-11-28 15:30:00,
2013-11-28 07:35:00,42.0,41.7,29.96,SE,139,0.0,0.0,99,0.00,,,0.00,0052,Weather View 32 v70,2013-11-28 15:35:00,
2013-11-28 07:40:00,42.1,41.8,29.96,SE,139,0.0,0.0,99,0.00,,,0.00,0054,Weather View 32 v70,2013-11-28 15:40:00,
2013-11-28 07:45:00,42.1,41.8,29.96,SE,139,0.0,0.0,99,0.00,,,0.00,0060,Weather View 32 v70,2013-11-28 15:45:00,
2013-11-28 07:55:00,42.6,42.3,29.96,SE,139,0.0,0.0,99,0.00,,,0.00,0092,Weather View 32 v70,2013-11-28 15:55:00,
2013-11-28 08:00:00,42.9,42.6,29.97,SE,139,0.0,0.0,99,0.00,,,0.00,0102,Weather View 32 v70,2013-11-28 16:00:00,
2013-11-28 08:05:00,43.1,42.8,29.96,South,184,0.0,0.0,99,0.00,,,0.00,0127,Weather View 32 v70,2013-11-28 16:05:00,
2013-11-28 08:10:00,43.5,43.2,29.97,ENE,72,0.0,0.0,99,0.00,,,0.00,0136,Weather View 32 v70,2013-11-28 16:10:00,
2013-11-28 08:15:00,43.8,43.5,29.97,SSE,162,0.0,0.0,99,0.00,,,0.00,0133,Weather View 32 v70,2013-11-28 16:15:00,
2013-11-28 08:25:00,44.6,44.3,29.97,SE,139,0.0,0.0,99,0.00,,,0.00,0185,Weather View 32 v70,2013-11-28 16:25:00,
2013-11-28 08:30:00,44.9,44.6,29.97,NW,319,0.0,0.0,99,0.00,,,0.00,0198,Weather View 32 v70,2013-11-28 16:30:00,
2013-11-28 08:35:00,45.3,45.0,29.97,NNW,342,0.0,0.0,99,0.00,,,0.00,0202,Weather View 32 v70,2013-11-28 16:35:00,
2013-11-28 08:40:00,45.9,45.6,29.98,NNE,27,0.0,0.0,99,0.00,,,0.00,0226,Weather View 32 v70,2013-11-28 16:40:00,
2013-11-28 08:49:00,46.5,46.2,29.97,ENE,72,0.0,0.0,99,0.00,,,0.00,0219,Weather View 32 v70,2013-11-28 16:49:00,
2013-11-28 08:55:00,48.6,48.1,29.97,South,184,0.0,0.0,98,0.00,,,0.00,0257,Weather View 32 v70,2013-11-28 16:55:00,
2013-11-28 09:00:00,49.2,48.1,29.97,NE,49,1.0,1.0,96,0.00,,,0.00,0272,Weather View 32 v70,2013-11-28 17:00:00,
2013-11-28 09:05:00,49.2,47.3,29.97,NNE,27,3.0,3.0,93,0.00,,,0.00,0285,Weather View 32 v70,2013-11-28 17:05:00,
2013-11-28 09:15:00,49.6,45.6,29.97,NW,319,0.0,3.0,86,0.00,,,0.00,0292,Weather View 32 v70,2013-11-28 17:15:00,
2013-11-28 09:20:00,50.0,46.0,29.97,ENE,72,1.0,3.0,86,0.00,,,0.00,0299,Weather View 32 v70,2013-11-28 17:20:00,
2013-11-28 09:25:00,50.5,45.8,29.97,NW,319,1.0,3.0,84,0.00,,,0.00,0309,Weather View 32 v70,2013-11-28 17:25:00,
2013-11-28 09:30:00,51.1,46.1,29.97,WNW,297,1.0,3.0,83,0.00,,,0.00,0321,Weather View 32 v70,2013-11-28 17:30:00,
2013-11-28 09:35:00,51.9,46.6,29.97,East,94,0.0,3.0,82,0.00,,,0.00,0329,Weather View 32 v70,2013-11-28 17:35:00,
2013-11-28 09:45:00,52.6,46.3,29.97,ESE,117,0.0,3.0,79,0.00,,,0.00,0342,Weather View 32 v70,2013-11-28 17:45:00,
2013-11-28 09:50:00,53.1,46.4,29.97,SSE,162,0.0,3.0,78,0.00,,,0.00,0348,Weather View 32 v70,2013-11-28 17:50:00,
2013-11-28 09:55:00,54.1,47.0,29.98,ESE,117,3.0,4.0,77,0.00,,,0.00,0356,Weather View 32 v70,2013-11-28 17:55:00,
2013-11-28 10:00:00,54.8,47.0,29.98,ENE,72,1.0,4.0,75,0.00,,,0.00,0364,Weather View 32 v70,2013-11-28 18:00:00,
2013-11-28 10:05:00,55.8,47.3,29.98,ESE,117,0.0,4.0,73,0.00,,,0.00,0371,Weather View 32 v70,2013-11-28 18:05:00,
2013-11-28 10:15:00,57.2,46.3,29.98,SE,139,1.0,4.0,67,0.00,,,0.00,0379,Weather View 32 v70,2013-11-28 18:15:00,
2013-11-28 10:20:00,57.9,46.6,29.98,ENE,72,1.0,4.0,66,0.00,,,0.00,0384,Weather View 32 v70,2013-11-28 18:20:00,
2013-11-28 10:25:00,58.5,46.7,29.98,SE,139,1.0,4.0,65,0.00,,,0.00,0391,Weather View 32 v70,2013-11-28 18:25:00,
2013-11-28 10:30:00,58.8,45.8,29.98,SE,139,1.0,4.0,62,0.00,,,0.00,0399,Weather View 32 v70,2013-11-28 18:30:00,
2013-11-28 10:35:00,59.2,45.3,29.97,NW,319,2.0,4.0,60,0.00,,,0.00,0404,Weather View 32 v70,2013-11-28 18:35:00,
2013-11-28 10:45:00,58.8,44.0,29.97,NW,319,2.0,4.0,58,0.00,,,0.00,0417,Weather View 32 v70,2013-11-28 18:45:00,
2013-11-28 10:50:00,58.9,43.2,29.97,NNW,342,3.0,5.0,56,0.00,,,0.00,0417,Weather View 32 v70,2013-11-28 18:50:00,
2013-11-28 11:00:00,59.5,42.8,29.97,NNW,342,4.0,5.0,54,0.00,,,0.00,0431,Weather View 32 v70,2013-11-28 19:00:00,
2013-11-28 11:05:00,59.8,43.1,29.97,WNW,297,4.0,5.0,54,0.00,,,0.00,0442,Weather View 32 v70,2013-11-28 19:05:00,
2013-11-28 11:15:00,60.4,42.1,29.97,NW,319,4.0,5.0,51,0.00,,,0.00,0458,Weather View 32 v70,2013-11-28 19:15:00,
2013-11-28 11:20:00,60.6,41.8,29.96,NNW,342,1.0,5.0,50,0.00,,,0.00,0241,Weather View 32 v70,2013-11-28 19:20:00,
2013-11-28 11:25:00,60.7,41.9,29.96,NW,319,3.0,5.0,50,0.00,,,0.00,0310,Weather View 32 v70,2013-11-28 19:25:00,
2013-11-28 11:30:00,60.8,42.5,29.96,West,274,0.0,5.0,51,0.00,,,0.00,0242,Weather View 32 v70,2013-11-28 19:30:00,
2013-11-28 11:40:00,61.6,42.7,29.96,WNW,297,3.0,5.0,50,0.00,,,0.00,0408,Weather View 32 v70,2013-11-28 19:40:00,
2013-11-28 11:45:00,61.7,42.3,29.96,NE,49,2.0,5.0,49,0.00,,,0.00,0351,Weather View 32 v70,2013-11-28 19:45:00,
2013-11-28 11:50:00,62.2,42.8,29.96,NW,319,1.0,5.0,49,0.00,,,0.00,0231,Weather View 32 v70,2013-11-28 19:50:00,
2013-11-28 11:55:00,62.3,42.8,29.95,NNW,342,1.0,5.0,49,0.00,,,0.00,0139,Weather View 32 v70,2013-11-28 19:55:00,
2013-11-28 12:05:00,62.1,42.7,29.96,East,94,2.0,5.0,49,0.00,,,0.00,0139,Weather View 32 v70,2013-11-28 20:05:00,
2013-11-28 12:10:00,62.1,42.7,29.96,North,4,1.0,5.0,49,0.00,,,0.00,0168,Weather View 32 v70,2013-11-28 20:10:00,
2013-11-28 12:15:00,62.3,42.3,29.96,SE,139,0.0,5.0,48,0.00,,,0.00,0240,Weather View 32 v70,2013-11-28 20:15:00,
2013-11-28 12:20:00,62.8,43.3,29.96,East,94,1.0,4.0,49,0.00,,,0.00,0311,Weather View 32 v70,2013-11-28 20:20:00,
2013-11-28 12:25:00,63.5,43.4,29.96,ESE,117,2.0,4.0,48,0.00,,,0.00,0248,Weather View 32 v70,2013-11-28 20:25:00,
2013-11-28 12:30:00,63.4,42.8,29.96,SSE,162,2.0,4.0,47,0.00,,,0.00,0434,Weather View 32 v70,2013-11-28 20:30:00,
2013-11-28 12:40:00,64.1,42.8,29.95,South,184,0.0,4.0,46,0.00,,,0.00,0266,Weather View 32 v70,2013-11-28 20:40:00,
2013-11-28 12:45:00,64.3,42.5,29.95,SE,139,1.0,4.0,45,0.00,,,0.00,0248,Weather View 32 v70,2013-11-28 20:45:00,
2013-11-28 12:50:00,64.5,42.0,29.95,SSE,162,1.0,4.0,44,0.00,,,0.00,0315,Weather View 32 v70,2013-11-28 20:50:00,
2013-11-28 12:55:00,64.8,42.3,29.95,South,184,0.0,4.0,44,0.00,,,0.00,0389,Weather View 32 v70,2013-11-28 20:55:00,
2013-11-28 13:00:00,65.3,42.2,29.95,ESE,117,1.0,4.0,43,0.00,,,0.00,0393,Weather View 32 v70,2013-11-28 21:00:00,
2013-11-28 13:10:00,66.3,42.5,29.95,SSW,207,1.0,4.0,42,0.00,,,0.00,0366,Weather View 32 v70,2013-11-28 21:10:00,
2013-11-28 13:15:00,66.3,42.5,29.95,ESE,117,2.0,4.0,42,0.00,,,0.00,0409,Weather View 32 v70,2013-11-28 21:15:00,
2013-11-28 13:20:00,66.5,42.0,29.95,ESE,117,1.0,4.0,41,0.00,,,0.00,0406,Weather View 32 v70,2013-11-28 21:20:00,
2013-11-28 13:25:00,66.2,41.7,29.95,South,184,2.0,5.0,41,0.00,,,0.00,0395,Weather View 32 v70,2013-11-28 21:25:00,
2013-11-28 13:30:00,66.8,42.3,29.95,SE,139,1.0,5.0,41,0.00,,,0.00,0394,Weather View 32 v70,2013-11-28 21:30:00,
2013-11-28 13:40:00,67.3,42.1,29.95,SSW,207,3.0,5.0,40,0.00,,,0.00,0385,Weather View 32 v70,2013-11-28 21:40:00,
2013-11-28 13:45:00,67.5,42.3,29.95,ESE,117,0.0,5.0,40,0.00,,,0.00,0375,Weather View 32 v70,2013-11-28 21:45:00,
2013-11-28 13:50:00,67.6,41.0,29.95,SSW,207,3.0,5.0,38,0.00,,,0.00,0363,Weather View 32 v70,2013-11-28 21:50:00,
2013-11-28 13:55:00,67.6,41.7,29.95,South,184,1.0,5.0,39,0.00,,,0.00,0358,Weather View 32 v70,2013-11-28 21:55:00,
2013-11-28 14:05:00,67.9,42.0,29.95,East,94,2.0,5.0,39,0.00,,,0.00,0344,Weather View 32 v70,2013-11-28 22:05:00,
2013-11-28 14:10:00,67.8,41.9,29.95,ESE,117,3.0,5.0,39,0.00,,,0.00,0338,Weather View 32 v70,2013-11-28 22:10:00,
2013-11-28 14:15:00,67.1,41.3,29.95,SE,139,3.0,5.0,39,0.00,,,0.00,0332,Weather View 32 v70,2013-11-28 22:15:00,
2013-11-28 14:20:00,67.0,41.8,29.95,SE,139,3.0,5.0,40,0.00,,,0.00,0324,Weather View 32 v70,2013-11-28 22:20:00,
2013-11-28 14:25:00,67.0,41.8,29.95,SSE,162,2.0,5.0,40,0.00,,,0.00,0317,Weather View 32 v70,2013-11-28 22:25:00,
2013-11-28 14:35:00,66.5,41.4,29.95,South,184,4.0,5.0,40,0.00,,,0.00,0299,Weather View 32 v70,2013-11-28 22:35:00,
2013-11-28 14:40:00,66.2,41.7,29.95,SSW,207,4.0,5.0,41,0.00,,,0.00,0286,Weather View 32 v70,2013-11-28 22:40:00,
2013-11-28 14:45:00,66.4,41.9,29.95,SSW,207,3.0,5.0,41,0.00,,,0.00,0275,Weather View 32 v70,2013-11-28 22:45:00,
2013-11-28 14:50:00,66.3,41.8,29.95,SSW,207,3.0,5.0,41,0.00,,,0.00,0269,Weather View 32 v70,2013-11-28 22:50:00,
2013-11-28 14:55:00,66.5,43.3,29.95,SSW,207,2.0,5.0,43,0.00,,,0.00,0258,Weather View 32 v70,2013-11-28 22:55:00,
2013-11-28 15:05:00,66.2,43.6,29.95,SSW,207,0.0,5.0,44,0.00,,,0.00,0235,Weather View 32 v70,2013-11-28 23:05:00,
2013-11-28 15:10:00,65.7,44.3,29.96,WSW,252,0.0,5.0,46,0.00,,,0.00,0223,Weather View 32 v70,2013-11-28 23:10:00,
2013-11-28 15:15:00,65.5,44.1,29.96,West,274,0.0,5.0,46,0.00,,,0.00,0211,Weather View 32 v70,2013-11-28 23:15:00,
2013-11-28 15:20:00,65.1,44.3,29.96,West,274,0.0,5.0,47,0.00,,,0.00,0200,Weather View 32 v70,2013-11-28 23:20:00,
2013-11-28 15:30:00,64.3,44.1,29.96,SW,229,0.0,5.0,48,0.00,,,0.00,0046,Weather View 32 v70,2013-11-28 23:30:00,
2013-11-28 15:35:00,63.4,43.3,29.96,SW,229,1.0,5.0,48,0.00,,,0.00,0044,Weather View 32 v70,2013-11-28 23:35:00,
2013-11-28 15:40:00,62.3,42.8,29.96,SW,229,0.0,4.0,49,0.00,,,0.00,0042,Weather View 32 v70,2013-11-28 23:40:00,
2013-11-28 15:45:00,61.5,42.6,29.96,SW,229,2.0,4.0,50,0.00,,,0.00,0041,Weather View 32 v70,2013-11-28 23:45:00,
2013-11-28 15:50:00,61.2,42.9,29.96,SSW,207,1.0,3.0,51,0.00,,,0.00,0039,Weather View 32 v70,2013-11-28 23:50:00,
2013-11-28 16:00:00,60.5,42.7,29.97,East,94,4.0,4.0,52,0.00,,,0.00,0032,Weather View 32 v70,2013-11-29 00:00:00,
2013-11-28 16:05:00,60.2,43.0,29.97,SW,229,2.0,5.0,53,0.00,,,0.00,0029,Weather View 32 v70,2013-11-29 00:05:00,
2013-11-28 16:10:00,60.2,43.0,29.97,SW,229,1.0,5.0,53,0.00,,,0.00,0026,Weather View 32 v70,2013-11-29 00:10:00,
2013-11-28 16:15:00,60.2,43.5,29.97,SW,229,1.0,5.0,54,0.00,,,0.00,0023,Weather View 32 v70,2013-11-29 00:15:00,
2013-11-28 16:20:00,59.8,43.1,29.97,West,274,1.0,5.0,54,0.00,,,0.00,0019,Weather View 32 v70,2013-11-29 00:20:00,
2013-11-28 16:30:00,59.5,42.8,29.98,SW,229,1.0,5.0,54,0.00,,,0.00,0011,Weather View 32 v70,2013-11-29 00:30:00,
2013-11-28 16:35:00,59.4,42.7,29.98,WSW,252,2.0,5.0,54,0.00,,,0.00,0012,Weather View 32 v70,2013-11-29 00:35:00,
2013-11-28 16:40:00,59.5,42.3,29.98,SW,229,3.0,5.0,53,0.00,,,0.00,0010,Weather View 32 v70,2013-11-29 00:40:00,
2013-11-28 16:45:00,59.8,42.1,29.98,SW,229,3.0,5.0,52,0.00,,,0.00,0007,Weather View 32 v70,2013-11-29 00:45:00,
2013-11-28 16:50:00,59.8,42.6,29.98,SW,229,1.0,5.0,53,0.00,,,0.00,0005,Weather View 32 v70,2013-11-29 00:50:00,
2013-11-28 17:00:00,59.0,41.9,29.98,WSW,252,2.0,5.0,53,0.00,,,0.00,0003,Weather View 32 v70,2013-11-29 01:00:00,
2013-11-28 17:05:00,58.6,42.0,29.98,SSW,207,2.0,4.0,54,0.00,,,0.00,0002,Weather View 32 v70,2013-11-29 01:05:00,
2013-11-28 17:10:00,58.6,42.0,29.99,SW,229,1.0,4.0,54,0.00,,,0.00,0002,Weather View 32 v70,2013-11-29 01:10:00,
2013-11-28 17:15:00,58.3,42.2,29.99,SSE,162,0.0,4.0,55,0.00,,,0.00,0002,Weather View 32 v70,2013-11-29 01:15:00,
2013-11-28 17:25:00,57.3,41.7,29.99,West,274,1.0,4.0,56,0.00,,,0.00,0001,Weather View 32 v70,2013-11-29 01:25:00,
2013-11-28 17:30:00,57.0,41.9,29.99,SW,229,1.0,4.0,57,0.00,,,0.00,0002,Weather View 32 v70,2013-11-29 01:30:00,
2013-11-28 17:35:00,57.2,41.6,30.00,WSW,252,3.0,4.0,56,0.00,,,0.00,0001,Weather View 32 v70,2013-11-29 01:35:00,
2013-11-28 17:40:00,57.3,41.7,30.00,SSW,207,2.0,4.0,56,0.00,,,0.00,0001,Weather View 32 v70,2013-11-29 01:40:00,
2013-11-28 17:45:00,57.4,41.8,30.00,SSW,207,1.0,4.0,56,0.00,,,0.00,0001,Weather View 32 v70,2013-11-29 01:45:00,
2013-11-28 17:50:00,57.3,41.7,30.00,South,184,0.0,4.0,56,0.00,,,0.00,0001,Weather View 32 v70,2013-11-29 01:50:00,
2013-11-28 18:00:00,56.4,41.3,30.00,SW,229,2.0,4.0,57,0.00,,,0.00,0001,Weather View 32 v70,2013-11-29 02:00:00,
2013-11-28 18:05:00,56.3,41.2,30.00,SW,229,1.0,4.0,57,0.00,,,0.00,0001,Weather View 32 v70,2013-11-29 02:05:00,
2013-11-28 18:10:00,56.0,41.4,30.00,SW,229,0.0,4.0,58,0.00,,,0.00,0002,Weather View 32 v70,2013-11-29 02:10:00,
2013-11-28 18:15:00,55.5,40.9,30.01,SW,229,0.0,4.0,58,0.00,,,0.00,0001,Weather View 32 v70,2013-11-29 02:15:00,
2013-11-28 18:20:00,55.3,41.2,30.01,SW,229,1.0,4.0,59,0.00,,,0.00,0001,Weather View 32 v70,2013-11-29 02:20:00,
2013-11-28 18:30:00,55.5,41.4,30.01,SW,229,1.0,4.0,59,0.00,,,0.00,0001,Weather View 32 v70,2013-11-29 02:30:00,
2013-11-28 18:35:00,55.4,40.8,30.01,SSE,162,0.0,3.0,58,0.00,,,0.00,0002,Weather View 32 v70,2013-11-29 02:35:00,
2013-11-28 18:40:00,55.0,40.9,30.02,SE,139,0.0,3.0,59,0.00,,,0.00,0002,Weather View 32 v70,2013-11-29 02:40:00,
2013-11-28 18:45:00,54.4,40.8,30.02,SE,139,0.0,3.0,60,0.00,,,0.00,0002,Weather View 32 v70,2013-11-29 02:45:00,
2013-11-28 18:50:00,53.7,40.5,30.02,West,274,0.0,3.0,61,0.00,,,0.00,0002,Weather View 32 v70,2013-11-29 02:50:00,
2013-11-28 18:55:00,53.4,40.7,30.02,WNW,297,0.0,3.0,62,0.00,,,0.00,0001,Weather View 32 v70,2013-11-29 02:55:00,
2013-11-28 19:05:00,52.9,41.0,30.02,West,274,0.0,2.0,64,0.00,,,0.00,0002,Weather View 32 v70,2013-11-29 03:05:00,
2013-11-28 19:10:00,52.7,40.8,30.02,SW,229,0.0,2.0,64,0.00,,,0.00,0002,Weather View 32 v70,2013-11-29 03:10:00,
2013-11-28 19:15:00,52.3,40.9,30.03,SSW,207,0.0,2.0,65,0.00,,,0.00,0002,Weather View 32 v70,2013-11-29 03:15:00,
2013-11-28 19:20:00,52.1,41.1,30.03,SSW,207,0.0,2.0,66,0.00,,,0.00,0002,Weather View 32 v70,2013-11-29 03:20:00,
2013-11-28 19:25:00,51.9,40.9,30.03,SSW,207,0.0,2.0,66,0.00,,,0.00,0001,Weather View 32 v70,2013-11-29 03:25:00,
2013-11-28 19:30:00,51.8,40.8,30.03,SW,229,0.0,1.0,66,0.00,,,0.00,0001,Weather View 32 v70,2013-11-29 03:30:00,
2013-11-28 19:40:00,51.5,40.5,30.04,WSW,252,0.0,1.0,66,0.00,,,0.00,0002,Weather View 32 v70,2013-11-29 03:40:00,
2013-11-28 19:45:00,51.4,40.8,30.04,SW,229,0.0,1.0,67,0.00,,,0.00,0001,Weather View 32 v70,2013-11-29 03:45:00,
2013-11-28 19:50:00,51.5,40.9,30.04,SSW,207,0.0,1.0,67,0.00,,,0.00,0002,Weather View 32 v70,2013-11-29 03:50:00,
2013-11-28 19:55:00,51.5,41.3,30.04,SSW,207,0.0,1.0,68,0.00,,,0.00,0002,Weather View 32 v70,2013-11-29 03:55:00,
2013-11-28 20:00:00,51.8,41.6,30.04,SSW,207,0.0,1.0,68,0.00,,,0.00,0002,Weather View 32 v70,2013-11-29 04:00:00,
2013-11-28 20:05:00,51.8,41.6,30.04,SSW,207,0.0,1.0,68,0.00,,,0.00,0001,Weather View 32 v70,2013-11-29 04:05:00,
2013-11-28 20:15:00,51.2,40.6,30.05,South,184,0.0,1.0,67,0.00,,,0.00,0001,Weather View 32 v70,2013-11-29 04:15:00,
2013-11-28 20:20:00,50.8,40.6,30.05,South,184,0.0,1.0,68,0.00,,,0.00,0001,Weather View 32 v70,2013-11-29 04:20:00,
2013-11-28 20:25:00,50.7,40.5,30.05,WSW,252,0.0,1.0,68,0.00,,,0.00,0002,Weather View 32 v70,2013-11-29 04:25:00,
2013-11-28 20:30:00,50.2,40.4,30.05,NW,319,1.0,2.0,69,0.00,,,0.00,0002,Weather View 32 v70,2013-11-29 04:30:00,
2013-11-28 20:35:00,49.8,40.8,30.05,WNW,297,0.0,2.0,71,0.00,,,0.00,0002,Weather View 32 v70,2013-11-29 04:35:00,
2013-11-28 20:40:00,49.6,40.6,30.05,NW,319,0.0,2.0,71,0.00,,,0.00,0001,Weather View 32 v70,2013-11-29 04:40:00,
2013-11-28 20:50:00,49.1,40.4,30.06,SW,229,0.0,2.0,72,0.00,,,0.00,0002,Weather View 32 v70,2013-11-29 04:50:00,
2013-11-28 20:56:00,48.9,40.6,30.06,SSW,207,0.0,2.0,73,0.00,,,0.00,0002,Weather View 32 v70,2013-11-29 04:56:00,
2013-11-28 21:05:00,48.7,40.4,30.06,SSW,207,0.0,2.0,73,0.00,,,0.00,0002,Weather View 32 v70,2013-11-29 05:05:00,
2013-11-28 21:10:00,48.5,40.6,30.06,SSW,207,0.0,2.0,74,0.00,,,0.00,0002,Weather View 32 v70,2013-11-29 05:10:00,
2013-11-28 21:20:00,48.3,40.7,30.07,SSW,207,0.0,2.0,75,0.00,,,0.00,0001,Weather View 32 v70,2013-11-29 05:20:00,
2013-11-28 21:25:00,48.3,40.7,30.07,SSW,207,0.0,2.0,75,0.00,,,0.00,0002,Weather View 32 v70,2013-11-29 05:25:00,
2013-11-28 21:30:00,48.2,40.6,30.07,SSW,207,0.0,2.0,75,0.00,,,0.00,0001,Weather View 32 v70,2013-11-29 05:30:00,
2013-11-28 21:35:00,48.0,40.4,30.08,WSW,252,0.0,0.0,75,0.00,,,0.00,0001,Weather View 32 v70,2013-11-29 05:35:00,
2013-11-28 21:40:00,48.0,40.8,30.08,South,184,0.0,0.0,76,0.00,,,0.00,0001,Weather View 32 v70,2013-11-29 05:40:00,
2013-11-28 21:45:00,48.0,40.8,30.08,SSW,207,0.0,0.0,76,0.00,,,0.00,0001,Weather View 32 v70,2013-11-29 05:45:00,
2013-11-28 21:55:00,47.8,40.9,30.08,SSW,207,0.0,0.0,77,0.00,,,0.00,0001,Weather View 32 v70,2013-11-29 05:55:00,
2013-11-28 22:00:00,47.5,40.6,30.08,West,274,0.0,0.0,77,0.00,,,0.00,0002,Weather View 32 v70,2013-11-29 06:00:00,
2013-11-28 22:05:00,47.4,40.9,30.08,NNW,342,0.0,0.0,78,0.00,,,0.00,0001,Weather View 32 v70,2013-11-29 06:05:00,
2013-11-28 22:10:00,47.2,40.7,30.08,South,184,0.0,0.0,78,0.00,,,0.00,0001,Weather View 32 v70,2013-11-29 06:10:00,
2013-11-28 22:15:00,46.9,40.4,30.08,SSW,207,0.0,0.0,78,0.00,,,0.00,0001,Weather View 32 v70,2013-11-29 06:15:00,
2013-11-28 22:20:00,46.7,40.5,30.08,SSW,207,0.0,0.0,79,0.00,,,0.00,0001,Weather View 32 v70,2013-11-29 06:20:00,
2013-11-28 22:25:00,46.5,40.3,30.08,SSW,207,0.0,0.0,79,0.00,,,0.00,0001,Weather View 32 v70,2013-11-29 06:25:00,
2013-11-28 22:35:00,46.3,40.5,30.09,SSE,162,0.0,0.0,80,0.00,,,0.00,0001,Weather View 32 v70,2013-11-29 06:35:00,
2013-11-28 22:40:00,46.3,40.8,30.09,South,184,0.0,0.0,81,0.00,,,0.00,0001,Weather View 32 v70,2013-11-29 06:40:00,
2013-11-28 22:45:00,46.3,40.8,30.09,SSW,207,0.0,0.0,81,0.00,,,0.00,0001,Weather View 32 v70,2013-11-29 06:45:00,
2013-11-28 22:50:00,46.0,40.5,30.09,South,184,0.0,0.0,81,0.00,,,0.00,0002,Weather View 32 v70,2013-11-29 06:50:00,
2013-11-28 22:57:00,45.7,40.2,30.09,South,184,0.0,0.0,81,0.00,,,0.00,0001,Weather View 32 v70,2013-11-29 06:57:00,
2013-11-28 23:05:00,45.7,40.5,30.09,South,184,0.0,0.0,82,0.00,,,0.00,0001,Weather View 32 v70,2013-11-29 07:05:00,
2013-11-28 23:10:00,45.5,40.3,30.10,South,184,0.0,0.0,82,0.00,,,0.00,0001,Weather View 32 v70,2013-11-29 07:10:00,
2013-11-28 23:15:00,45.3,40.1,30.10,NNW,342,0.0,0.0,82,0.00,,,0.00,0001,Weather View 32 v70,2013-11-29 07:15:00,
2013-11-28 23:20:00,45.0,40.1,30.10,SSW,207,0.0,0.0,83,0.00,,,0.00,0001,Weather View 32 v70,2013-11-29 07:20:00,
2013-11-28 23:25:00,44.9,40.0,30.10,SSW,207,0.0,0.0,83,0.00,,,0.00,0001,Weather View 32 v70,2013-11-29 07:25:00,
2013-11-28 23:30:00,44.8,39.9,30.10,SSE,162,0.0,0.0,83,0.00,,,0.00,0002,Weather View 32 v70,2013-11-29 07:30:00,
2013-11-28 23:40:00,44.6,40.1,30.10,SE,139,0.0,0.0,84,0.00,,,0.00,0001,Weather View 32 v70,2013-11-29 07:40:00,
2013-11-28 23:45:00,44.4,39.9,30.10,SSW,207,0.0,0.0,84,0.00,,,0.00,0001,Weather View 32 v70,2013-11-29 07:45:00,
2013-11-28 23:50:00,44.3,40.1,30.10,SSW,207,0.0,0.0,85,0.00,,,0.00,0001,Weather View 32 v70,2013-11-29 07:50:00,
2013-11-28 23:55:00,44.4,40.2,30.10,SSW,207,0.0,0.0,85,0.00,,,0.00,0001,Weather View 32 v70,2013-11-29 07:55:00,